Simultaneous Nadir Overpasses (SNOs) Predictions

Prediction of SNOs between LANDSAT-8 and METOP-A Satellite Orbit:

Table of predicted SNOs for the next 14.0 days since TLE Epoch: 5/6/2016
Index Date (LANDSAT-8) Time (LANDSAT-8) Lat,Lon (LANDSAT-8) SZA (LANDSAT-8 ) Date (METOP-A) Time (METOP-A) Lat,Lon (METOP-A) SZA (METOP-A ) Distance(km) Time Diff (sec)
1 05/08/2016 21:12:56 -81.15, 82.17 113.96 05/08/2016 21:12:13 -81.15, 82.11 113.99 1.12 43
2 05/08/2016 22:02:21 81.18,-109.73 66.10 05/08/2016 22:02:52 81.17,-109.89 66.09 2.74 31
3 05/11/2016 16:47:09 -81.16, 148.72 114.67 05/11/2016 16:46:35 -81.16, 148.88 114.66 2.81 34
4 05/11/2016 17:36:34 81.18, -43.21 65.39 05/11/2016 17:37:14 81.18, -43.11 65.42 1.72 40
5 05/14/2016 12:21:21 -81.16,-144.80 115.35 05/14/2016 12:20:57 -81.16,-144.76 115.35 0.82 24
6
